Wind_Speed
25 25 25 26 27 28 29 29 30 30 29 29 28 19 7 1 5 18 24 29 27 10 4 6 6 2 8 10 8 6 4 5 7 7 6 4 3 3 4 3 4 4 5 7 8 5 3 3 3 5 8 8 9 14 17 16 13 10 7 6 9 8 3 2 7 7 9 14 13 8 12 14 10 7 7 9 10 9 7 6 6 5 5 4 2 4 7
25 25 25 26 27 28 28 28 28 27 26 27 23 10 2 2 5 10 17 27 21 6 4 7 5 6 10 10 10 9 5 4 6 7 6 4 2 2 3 2 3 4 5 7 8 6 3 2 3 5 7 7 9 14 15 15 12 7 6 7 7 6 4 3 5 5 4 7 8 6 8 11 10 8 9 12 14 12 6 4 5 4 7 7 4 4 8
24 24 25 25 26 27 28 27 27 24 23 25 20 7 3 4 3 4 11 20 13 6 5 5 4 8 11 10 10 10 7 3 4 7 6 4 4 2 1 1 3 4 5 7 9 7 2 1 4 5 7 7 8 12 15 16 12 9 12 12 6 4 4 3 3 3 4 5 4 3 3 6 8 11 14 14 15 15 8 4 5 4 7 7 5 6 9
24 24 24 24 25 26 26 26 25 23 21 23 21 9 3 3 2 2 6 8 5 5 6 6 4 6 8 7 8 10 9 5 3 4 3 4 5 4 2 1 2 4 6 6 8 8 4 3 4 6 7 7 6 10 16 17 14 13 13 11 5 3 5 6 7 8 7 7 8 9 8 7 9 15 17 14 14 15 10 5 5 6 5 5 8 9 8
23 23 23 23 23 24 24 24 24 22 20 22 19 8 3 1 3 3 4 3 3 5 6 7 6 7 7 5 6 8 10 8 4 2 2 4 5 3 1 1 2 4 6 6 6 8 7 6 6 7 7 7 8 12 14 13 12 12 10 8 5 3 5 8 10 12 13 13 16 17 13 11 13 16 18 15 13 14 12 9 7 6 6 5 9 8 7
22 23 22 22 22 22 22 22 22 21 20 20 14 4 2 2 2 4 4 2 3 5 6 9 9 9 8 4 4 8 9 9 8 4 5 7 5 2 1 2 4 5 5 4 5 7 6 5 6 5 5 7 9 10 10 7 7 12 10 6 5 3 5 8 12 17 20 17 16 16 11 10 11 13 19 17 15 15 14 11 8 8 8 8 9 8 9
22 22 22 21 21 21 20 20 20 19 19 18 11 2 2 3 2 3 4 2 4 5 7 10 10 10 8 4 4 7 8 9 9 6 7 7 5 4 4 5 6 6 3 3 4 4 4 5 6 4 4 7 7 7 7 5 6 12 11 7 4 2 5 9 14 19 20 15 11 10 8 8 9 8 19 19 16 16 13 9 9 8 8 9 7 7 7
22 22 22 22 21 20 19 18 17 17 17 15 8 2 2 2 2 2 3 1 4 5 5 6 6 7 6 4 4 6 8 9 9 8 7 7 6 6 8 10 9 5 3 3 4 4 5 8 10 7 5 5 3 1 3 5 8 11 9 6 4 2 4 11 14 12 11 9 9 9 9 7 7 2 10 14 15 17 13 9 8 6 4 4 6 5 1
22 22 21 22 21 20 19 17 15 15 14 11 5 3 4 3 2 1 2 3 4 3 3 3 4 5 3 3 4 7 9 9 8 7 7 6 7 9 12 14 10 4 3 4 6 6 8 11 14 12 9 7 3 3 3 6 9 9 7 7 5 3 4 9 10 7 7 9 12 13 13 5 10 13 9 1 8 11 7 3 2 0 2 6 8 6 2
23 22 22 21 20 19 18 17 15 13 12 10 4 3 5 5 3 1 0 3 3 2 3 2 3 3 2 5 7 7 10 10 6 4 5 5 7 9 10 11 7 3 4 5 6 10 12 14 15 13 12 10 6 5 7 9 8 6 6 8 6 3 4 6 7 6 7 10 14 15 12 5 9 11 14 9 7 12 10 10 13 10 1 5 5 5 4
23 22 22 21 20 19 18 17 16 13 12 11 8 6 7 7 3 0 1 3 2 1 2 2 2 3 5 9 10 8 11 12 6 2 4 7 9 9 8 8 5 3 4 6 7 10 13 14 13 11 11 12 10 8 11 12 11 8 7 7 7 5 5 5 5 5 7 12 15 12 5 5 4 3 10 13 13 19 18 13 15 15 9 4 2 2 3
23 22 21 20 20 19 18 17 16 13 12 13 12 12 13 11 6 3 2 3 3 1 2 3 3 6 9 10 11 10 11 11 8 7 7 9 11 10 6 6 6 4 6 9 9 11 11 11 11 11 10 11 11 10 12 15 13 10 8 9 9 8 6 4 4 4 6 9 8 2 2 3 3 1 10 14 10 13 17 18 18 19 16 14 11 8 8
23 22 21 21 20 20 18 16 16 14 13 13 14 15 15 12 7 3 2 3 3 2 3 5 6 8 10 10 10 11 11 10 9 9 9 9 10 9 5 3 6 8 10 11 10 10 8 6 6 8 8 8 8 9 12 15 15 13 12 12 11 9 5 3 4 4 4 5 3 2 4 2 3 5 12 17 13 12 14 17 19 20 18 16 12 9 8
23 22 22 21 19 18 17 15 15 15 13 13 14 15 16 13 8 3 2 2 4 3 3 4 5 6 8 8 9 9 9 8 6 7 8 8 8 8 6 6 10 12 10 8 7 5 4 3 3 4 5 5 3 4 8 11 14 15 15 14 12 9 4 3 4 3 2 3 3 2 4 4 6 8 12 13 10 10 8 8 12 16 17 15 12 10 10
23 23 21 20 18 17 16 15 15 15 14 13 13 14 15 15 12 7 3 2 3 2 2 4 5 5 6 7 8 8 7 5 4 5 7 7 6 7 8 10 15 14 9 5 4 3 2 2 3 3 3 3 3 3 4 4 8 13 15 13 10 8 4 2 3 3 4 4 3 3 3 2 5 11 15 14 10 11 9 1 9 14 17 16 13 11 12
22 22 20 18 17 16 16 15 14 14 14 13 14 14 15 14 12 11 6 3 2 2 2 5 6 4 5 6 7 7 6 4 3 4 5 5 6 8 8 11 15 13 7 4 3 3 3 2 2 3 3 3 4 4 4 5 2 5 10 12 10 7 4 1 2 4 4 4 2 3 2 1 7 16 20 19 15 12 8 2 8 12 16 16 14 13 13
21 20 19 18 17 16 16 15 15 14 13 13 13 14 16 14 11 11 7 2 2 2 2 3 4 3 3 4 4 4 3 2 2 1 2 4 6 8 8 9 11 9 6 5 2 2 3 2 2 2 2 3 6 4 4 4 4 3 2 8 8 6 2 1 2 4 5 4 2 1 1 2 11 17 19 21 18 9 1 6 6 10 14 14 13 14 14
20 20 19 18 17 17 17 16 15 14 14 13 13 14 16 15 12 11 7 2 2 3 3 5 6 4 2 3 4 4 3 3 1 1 2 3 3 6 8 7 6 6 7 4 2 2 3 2 2 3 2 4 5 4 3 4 3 5 5 3 2 2 3 3 3 4 4 4 1 1 1 3 12 18 20 21 15 4 6 6 2 7 11 12 13 14 13
20 20 19 18 18 18 17 16 15 15 14 13 12 13 14 12 9 10 7 2 2 3 2 4 6 6 4 4 5 4 4 4 3 2 3 2 2 6 8 4 2 4 4 3 2 2 2 2 2 2 2 3 4 3 3 4 3 5 7 6 4 3 2 3 4 4 3 3 1 1 1 4 14 18 17 14 6 5 6 3 2 6 9 9 12 14 12
20 19 19 19 18 17 16 15 15 14 13 12 11 11 12 12 10 10 9 5 2 3 5 6 9 10 8 6 6 5 4 4 2 1 2 2 3 6 5 2 3 4 3 3 3 2 2 3 3 2 2 3 4 3 3 4 4 6 6 4 4 3 2 2 3 3 3 2 3 3 1 5 14 15 12 11 7 4 0 1 3 6 8 8 10 12 12
20 20 19 18 17 16 15 15 14 13 12 11 9 10 11 10 8 8 10 9 4 2 3 5 7 9 9 8 9 9 7 5 4 2 2 2 2 3 3 2 3 3 2 3 2 2 2 3 2 2 2 2 3 3 5 4 4 8 7 3 3 5 3 1 2 3 2 3 4 3 2 2 7 8 5 5 4 2 1 2 4 5 7 7 8 9 11
20 20 19 17 17 16 15 14 14 13 12 10 9 8 8 8 6 5 7 11 9 6 7 10 12 15 18 19 19 18 16 14 11 8 4 2 1 2 2 2 3 1 1 1 1 1 2 2 2 3 3 3 3 4 6 4 2 7 9 4 3 4 3 0 2 3 2 1 2 3 1 2 0 2 3 6 7 5 5 5 5 5 5 6 7 9 11
20 19 18 17 16 15 15 14 13 13 11 10 8 8 8 9 8 6 5 8 8 7 12 16 16 17 17 17 16 17 20 20 18 15 10 4 2 2 2 1 1 1 2 2 2 1 2 2 2 3 2 3 4 4 5 4 2 5 8 5 2 5 5 2 1 3 3 0 3 8 9 4 2 3 6 8 9 7 5 5 5 5 6 6 7 8 10
19 18 18 17 16 15 14 14 13 12 11 10 8 9 9 9 9 6 4 4 2 2 6 6 5 6 9 10 9 9 14 17 17 18 15 10 4 2 1 2 2 1 2 4 4 3 1 2 2 2 3 3 4 3 3 3 3 4 6 4 4 5 5 5 5 6 5 2 6 11 11 7 6 8 9 9 9 9 9 7 4 5 5 5 6 6 8
19 18 17 16 15 14 14 13 12 11 10 9 8 8 8 8 6 4 4 3 1 0 2 2 3 7 11 13 11 8 9 11 13 15 17 15 10 5 3 4 5 4 4 4 3 1 1 1 1 2 2 3 4 3 3 3 4 5 4 3 5 6 6 6 6 7 6 3 6 12 12 6 3 7 7 7 9 11 11 10 6 5 4 3 4 5 4
19 18 17 16 15 13 12 11 10 9 8 7 7 7 7 6 4 3 5 3 1 0 1 2 5 10 13 12 9 7 7 9 12 15 17 18 18 17 12 8 6 4 2 2 2 1 1 1 1 1 1 2 3 2 2 3 4 5 3 2 5 6 6 6 7 6 4 3 8 15 15 9 6 8 8 7 9 10 10 11 10 7 5 4 4 4 3
18 18 17 15 14 11 8 8 7 6 4 3 5 6 6 5 4 4 5 3 1 0 1 2 4 10 14 12 7 5 5 8 9 9 10 11 15 16 10 3 2 2 3 3 3 2 1 2 3 2 1 2 2 2 2 3 4 3 2 2 5 6 6 7 7 5 4 4 7 10 9 8 10 14 13 10 10 11 9 8 10 9 6 5 6 5 4
18 17 15 13 10 7 5 5 6 4 3 4 6 6 4 3 3 5 6 5 3 1 1 3 4 8 11 10 7 3 4 6 5 4 3 3 3 4 5 5 4 3 3 2 2 2 2 3 3 2 2 2 3 2 3 3 2 2 2 3 5 6 6 7 7 6 8 9 7 5 5 8 11 15 16 13 11 11 11 9 7 8 8 6 7 7 7
17 14 11 8 6 4 3 4 5 5 4 6 7 4 2 1 1 3 5 6 5 2 1 3 4 4 6 8 7 2 4 4 3 3 1 4 8 10 9 6 4 2 2 2 2 2 2 2 2 2 2 2 3 3 3 3 3 3 4 6 7 7 7 7 6 9 11 11 9 7 7 11 13 14 16 15 11 9 11 11 7 6 7 6 5 7 8
13 9 7 5 3 2 3 3 4 4 2 2 2 2 0 1 1 2 4 5 6 4 0 1 1 3 5 5 6 7 7 6 8 9 9 7 6 7 7 5 3 3 1 1 2 1 1 2 2 2 3 4 3 2 3 4 3 3 5 9 12 12 11 9 7 9 11 12 11 10 11 13 14 13 14 15 13 10 11 11 8 5 6 6 4 5 6
9 5 3 3 3 3 2 2 3 3 2 2 2 1 1 1 2 4 4 4 6 4 0 0 2 3 4 2 5 8 9 8 10 9 8 6 5 6 7 5 3 3 2 1 1 1 1 1 2 2 3 4 3 1 3 5 4 5 9 13 13 12 12 12 11 11 13 14 13 14 15 13 11 11 12 12 11 10 9 8 6 7 8 8 6 6 7
6 0 2 3 4 3 2 1 1 2 2 2 1 1 1 0 2 4 6 6 6 3 1 1 1 2 2 0 3 6 6 6 5 3 4 4 3 4 6 5 2 2 3 2 1 1 1 1 2 2 3 4 3 2 2 3 4 9 14 15 12 11 12 13 14 14 14 14 12 14 15 11 8 10 10 8 6 6 6 5 6 8 10 10 9 9 11
3 2 4 4 4 4 3 2 1 2 2 3 4 3 3 3 3 5 6 5 3 2 0 1 0 2 2 0 2 5 4 3 3 2 3 5 3 2 3 3 1 2 5 4 2 1 2 1 1 2 2 2 1 1 0 1 6 12 15 14 12 12 13 15 15 14 13 12 10 12 15 14 10 10 10 10 9 8 8 8 8 9 9 8 7 8 9
3 4 5 5 5 5 4 2 1 0 1 1 1 2 5 6 6 7 5 3 1 1 1 1 1 2 2 1 1 4 3 2 2 2 2 3 4 2 1 2 2 2 3 3 1 1 2 1 1 2 2 1 1 1 1 6 12 14 13 11 10 11 13 14 14 14 15 14 13 14 17 16 14 13 13 13 12 11 10 10 10 9 8 7 5 5 6
3 4 6 6 6 5 5 4 4 3 2 2 3 3 5 6 7 5 3 2 1 1 1 0 1 1 2 2 2 3 2 2 1 2 1 1 3 2 1 1 3 2 1 2 1 2 3 2 2 3 3 4 3 3 4 11 16 15 13 12 10 9 12 14 15 16 18 17 16 17 16 14 13 14 14 12 10 10 11 10 9 9 9 8 6 5 5
5 3 5 7 6 5 5 5 5 4 3 4 6 5 6 6 5 3 1 1 1 1 1 0 1 0 0 0 2 2 0 1 1 1 1 0 1 2 1 2 2 1 1 1 1 1 2 2 2 2 3 4 4 2 5 11 15 15 15 14 11 10 12 15 16 18 19 18 17 16 15 11 13 14 12 9 9 9 10 10 10 9 10 9 8 6 5
7 3 3 4 4 3 3 4 4 4 4 4 7 8 6 4 4 2 1 1 1 1 2 1 1 2 2 1 1 1 1 1 1 0 1 0 0 0 1 1 1 0 1 1 1 1 1 2 2 2 3 2 1 4 5 8 11 13 13 13 12 11 12 15 17 19 19 17 16 16 16 12 11 11 11 10 9 9 9 10 10 10 10 10 8 7 7
5 2 1 2 1 1 1 2 4 4 5 6 8 6 3 1 1 0 2 1 0 1 1 2 2 3 2 2 1 2 1 1 1 1 0 0 0 0 1 1 1 1 1 1 1 1 1 1 1 1 2 3 3 4 4 6 7 8 9 10 11 12 12 14 17 19 18 17 16 16 16 14 12 10 11 11 10 9 9 9 9 8 9 9 8 7 7
4 1 1 2 1 1 0 3 5 7 6 5 4 2 1 1 1 1 1 0 0 1 0 1 2 2 1 1 2 2 2 1 1 1 1 1 0 0 0 0 1 1 1 1 1 2 2 1 0 1 2 4 4 4 4 5 6 7 8 8 10 11 11 12 14 16 16 15 15 16 14 14 14 12 10 10 10 8 7 7 8 7 8 8 7 6 7
4 3 1 1 1 1 3 7 9 7 3 2 1 1 0 1 0 1 0 1 1 1 1 1 2 1 2 0 2 2 1 1 0 1 1 1 1 1 1 0 0 1 2 2 1 2 1 1 0 1 3 5 6 6 5 4 6 7 8 8 9 11 12 12 13 16 17 16 16 17 17 17 16 14 10 8 8 7 6 6 7 8 7 7 8 8 9
5 3 1 1 1 3 8 11 8 4 1 1 1 0 0 0 1 0 1 1 2 2 1 1 1 1 1 2 3 1 2 2 1 1 1 1 1 1 2 0 0 2 1 2 2 2 1 1 1 2 3 4 6 7 5 4 6 7 8 9 10 12 13 13 15 18 19 17 15 16 17 19 18 16 13 10 6 6 6 6 7 7 7 8 9 11 13
9 8 6 4 1 4 7 7 4 3 1 0 0 1 0 0 1 1 1 0 1 1 1 1 1 2 2 2 2 2 1 1 0 1 1 1 1 1 2 1 1 2 1 3 1 2 1 1 1 2 4 5 7 7 5 4 6 7 8 8 10 12 13 13 14 17 20 18 14 14 17 19 18 17 16 14 7 3 4 6 7 8 9 10 11 12 14
8 7 6 5 3 4 4 2 2 1 1 1 1 1 2 1 1 1 1 1 0 0 1 1 0 0 2 2 1 1 1 2 1 1 0 1 1 1 1 1 1 1 2 1 2 2 1 1 2 3 5 6 6 7 6 5 5 5 6 7 9 12 14 13 13 16 20 20 19 19 20 21 21 22 24 21 14 7 4 3 1 1 3 6 9 11 12
4 1 2 2 2 2 1 1 1 1 1 2 1 2 3 3 2 1 2 2 1 2 3 2 2 1 2 2 1 1 0 1 1 1 0 1 1 0 1 0 1 1 0 2 2 1 0 1 2 3 5 5 6 7 7 6 4 4 6 7 9 11 13 14 14 15 17 19 22 24 24 24 25 27 29 27 21 14 10 8 9 11 12 11 8 4 6
2 1 2 2 2 1 1 1 2 1 2 2 1 1 2 2 2 2 2 2 2 3 4 2 4 4 3 1 1 1 1 1 2 0 1 2 0 1 0 1 1 1 2 2 1 0 1 1 2 4 5 5 6 7 8 6 5 4 5 7 9 9 9 11 12 12 12 15 18 20 22 23 23 23 25 28 28 24 18 15 16 18 19 20 19 18 15
1 1 2 2 2 2 1 1 2 2 2 1 1 1 2 2 2 3 3 2 2 5 6 4 3 5 3 1 0 1 1 2 1 1 2 1 1 0 1 1 1 2 2 1 1 1 1 2 3 4 5 5 6 7 8 7 6 4 4 5 8 8 8 9 10 10 12 16 19 19 20 22 23 23 24 28 31 31 28 26 27 26 22 20 20 22 22
1 2 2 2 1 2 1 1 1 1 1 0 2 3 3 3 2 3 4 4 4 5 6 5 1 2 2 2 1 0 0 1 1 1 1 1 1 0 1 2 2 1 0 1 1 1 2 2 3 3 4 5 5 6 7 7 6 5 4 4 5 7 8 8 8 9 12 16 18 18 18 21 23 24 25 26 29 32 33 33 33 32 28 24 25 26 27
1 1 2 2 1 1 1 1 1 2 2 2 3 4 4 3 3 4 5 4 4 5 5 4 2 2 1 1 1 1 1 1 1 2 2 1 2 2 2 2 1 0 0 0 2 2 2 2 3 3 4 4 5 6 6 7 7 7 5 4 4 6 8 8 8 10 13 14 14 15 17 20 22 23 24 24 26 31 35 35 35 34 32 30 30 30 28
1 1 1 1 1 1 2 1 2 3 3 3 3 4 4 4 4 5 5 4 5 5 4 3 2 2 2 1 1 2 2 1 2 2 2 2 3 2 1 1 1 1 1 1 2 2 2 2 3 3 4 4 5 6 6 7 7 7 6 4 3 5 7 8 8 10 13 13 13 14 16 18 19 21 21 20 21 26 32 35 36 35 33 31 31 30 28
0 1 0 0 1 1 2 2 4 4 5 4 4 3 3 3 4 5 4 4 4 4 4 3 3 2 2 2 2 2 2 1 2 2 2 2 2 2 2 1 1 2 2 2 2 2 2 2 2 3 4 5 6 6 6 6 7 7 8 7 5 6 6 8 9 10 12 13 14 15 15 16 17 18 19 18 18 22 28 32 34 33 32 32 31 29 27
2 1 0 1 1 1 1 1 1 2 2 1 2 1 1 1 3 5 4 3 3 4 4 3 2 2 3 3 2 1 1 2 2 2 1 1 1 1 1 1 2 2 3 3 2 2 2 2 1 2 4 5 5 5 6 7 8 10 11 10 9 8 7 6 8 9 10 11 13 15 15 16 17 18 18 20 21 21 22 25 28 29 29 30 31 29 28
1 1 1 1 0 2 3 3 2 2 2 2 1 1 1 0 4 4 3 4 4 3 2 2 1 2 3 1 1 1 2 2 2 2 1 1 1 1 1 2 3 3 3 3 2 2 2 2 2 2 3 4 5 5 7 8 10 12 13 12 10 11 10 8 7 7 8 9 10 12 13 15 16 17 17 19 19 16 14 16 21 24 25 26 28 28 27
Wind_Direction
337 339 341 342 344 345 346 348 350 356 2 358 352 348 329 345 304 301 326 349 345 345 74 11 2 15 344 344 336 334 13 23 5 0 360 16 60 44 24 9 345 322 315 313 317 350 9 281 290 303 300 303 308 322 333 335 340 344 326 319 323 317 321 294 288 283 263 267 277 254 212 201 196 193 180 184 192 182 174 184 176 183 210 204 189 251 270
336 339 341 342 344 344 345 347 350 357 4 358 351 348 301 294 281 290 334 350 351 21 53 355 354 348 343 347 340 339 6 27 9 352 348 18 71 38 15 1 330 307 305 313 330 7 47 260 296 300 291 301 313 316 325 330 332 334 323 326 335 330 340 353 318 294 254 261 275 272 227 203 200 201 186 188 195 183 157 152 160 187 207 183 162 232 255
337 339 340 342 344 343 343 346 349 358 3 356 351 344 281 304 262 249 337 348 0 65 47 1 354 343 345 344 338 345 352 2 35 14 356 29 39 351 300 320 310 307 326 334 334 348 51 241 281 278 290 305 310 315 322 323 319 303 300 310 324 315 297 286 286 265 217 216 226 246 251 221 209 200 192 191 189 181 169 144 152 201 214 182 172 224 258
337 338 339 342 343 341 341 344 348 357 3 355 347 332 287 316 299 284 341 346 11 58 26 10 0 342 347 341 336 346 334 322 34 29 357 23 8 326 264 269 303 327 348 342 328 331 337 317 298 287 304 312 306 315 318 315 313 306 307 323 338 295 273 250 246 258 259 256 263 279 298 286 235 203 192 189 184 183 180 152 161 193 184 192 217 221 254
335 335 336 340 341 339 341 344 347 355 359 354 346 322 254 299 312 341 357 327 358 19 4 358 350 337 338 327 318 329 321 319 352 2 332 359 351 320 265 293 331 355 357 341 320 321 320 311 299 294 308 309 299 308 309 301 314 329 339 354 343 294 286 272 267 279 280 274 277 280 285 283 254 212 191 185 180 182 187 185 186 168 148 218 242 208 216
333 333 334 336 337 338 341 342 345 351 353 352 350 322 253 314 316 9 14 317 353 5 333 328 332 330 333 318 293 316 330 343 352 347 342 345 351 4 322 318 341 349 354 336 312 317 317 296 291 298 308 306 306 313 304 289 341 356 350 346 341 301 274 284 301 307 296 280 274 272 267 279 269 210 185 186 187 184 191 200 188 155 160 218 238 194 193
332 332 332 333 334 336 339 339 343 348 347 347 349 314 291 323 301 9 34 359 331 323 304 312 323 327 331 314 297 328 345 350 345 346 349 339 336 351 329 316 325 322 323 314 296 318 322 293 293 294 282 297 314 329 314 305 13 3 340 331 355 320 270 302 316 306 295 287 282 273 273 307 311 216 183 186 195 190 185 194 189 174 189 211 209 192 206
330 330 330 331 331 333 335 337 339 341 340 343 346 296 301 357 332 342 13 336 302 292 292 314 323 320 315 301 319 338 339 342 346 346 337 321 323 341 333 321 314 301 301 297 284 305 307 292 294 286 262 280 299 342 310 305 328 339 332 324 345 350 295 316 319 302 294 317 339 326 306 320 351 300 183 179 194 197 186 183 189 198 212 174 142 144 275
328 328 327 328 330 330 331 332 333 331 331 334 335 285 298 330 359 355 329 308 300 292 299 319 310 305 308 313 334 335 323 334 356 340 311 316 336 335 325 319 312 298 298 290 288 305 299 287 289 287 280 276 245 173 219 273 300 321 325 309 312 326 298 309 322 312 301 333 351 334 310 328 41 19 354 305 182 184 176 140 87 280 191 130 114 119 146
326 326 325 327 328 327 327 327 327 327 323 313 292 267 302 321 351 71 285 292 294 281 284 286 283 294 314 318 321 319 310 321 351 339 301 319 325 305 301 311 317 320 309 292 294 303 296 287 287 289 287 276 246 209 222 241 262 283 301 299 293 294 296 314 333 319 302 327 335 322 314 5 49 8 341 346 72 87 68 35 23 12 6 147 144 162 192
325 325 325 326 325 325 325 323 323 323 315 301 285 272 282 286 283 276 251 265 251 221 264 258 250 288 309 311 312 309 306 312 332 337 304 309 304 290 294 311 313 297 286 281 284 287 283 281 281 280 279 275 262 232 218 227 240 247 263 279 278 280 290 307 320 300 297 318 319 313 336 61 89 354 354 5 48 72 69 53 28 13 6 3 352 89 72
326 326 325 325 324 324 323 320 319 317 306 300 292 285 284 278 260 231 221 256 258 226 261 245 243 281 297 298 297 300 307 314 326 326 313 302 300 302 315 323 317 304 291 289 290 290 285 282 279 279 279 275 271 256 233 231 237 236 238 252 266 280 286 290 294 279 290 313 320 302 143 116 165 113 20 13 26 58 62 56 35 17 15 12 3 29 52
326 325 324 323 323 323 321 318 316 311 304 300 292 288 292 286 261 213 179 248 256 230 257 263 257 270 282 289 294 301 311 320 325 322 313 300 303 318 340 332 312 308 302 298 296 298 299 292 286 293 295 282 269 256 244 237 235 234 235 240 252 265 275 292 286 274 293 325 350 168 206 276 356 25 15 10 6 9 30 48 33 12 16 15 359 14 35
324 322 321 322 323 321 319 317 314 309 305 300 291 289 293 286 267 224 155 232 251 228 243 273 271 269 279 296 307 310 314 317 320 320 312 300 306 325 335 323 313 309 305 303 303 305 308 305 312 315 306 304 293 253 246 239 230 228 232 238 245 252 268 319 299 283 332 333 313 270 267 318 5 9 354 349 345 330 342 52 38 11 13 11 354 10 24
321 320 321 322 324 321 317 315 313 309 307 304 296 290 289 286 276 255 194 185 263 254 215 237 262 288 300 304 309 310 310 315 322 317 303 290 300 319 320 318 316 312 309 317 325 324 319 316 335 330 318 339 351 305 290 271 225 218 222 231 243 239 228 290 304 304 339 337 314 324 334 350 353 339 324 316 310 293 280 85 48 9 4 5 356 9 25
320 321 323 324 323 320 317 314 309 307 306 303 300 293 289 291 280 256 223 168 238 256 209 217 239 279 301 296 299 297 294 308 324 311 300 304 317 317 314 315 316 316 327 356 353 345 345 341 335 322 309 326 327 308 320 333 297 209 205 216 239 245 212 215 286 276 304 327 327 336 16 57 335 326 318 314 314 293 259 124 52 359 348 357 1 9 22
321 322 323 323 322 318 316 313 308 307 303 298 299 294 288 293 285 258 236 176 202 251 254 231 239 277 295 286 294 288 278 302 329 298 305 320 317 314 320 323 321 330 357 13 16 18 6 329 314 317 290 306 320 318 319 332 345 353 193 197 227 264 271 353 299 271 285 305 332 9 57 332 328 325 316 311 311 300 210 98 54 340 335 351 2 14 22
323 323 323 323 322 318 316 314 309 307 303 298 296 290 285 290 286 260 241 198 214 250 253 237 236 246 251 259 282 293 295 305 309 244 286 289 294 315 324 327 326 343 4 14 38 33 3 326 324 329 305 310 325 330 325 331 346 349 3 92 149 286 322 327 297 282 289 297 331 47 161 333 332 323 311 308 308 342 73 76 35 322 329 347 5 18 24
322 323 324 323 322 319 317 314 310 308 305 301 298 289 286 291 282 252 233 204 222 249 247 217 219 232 250 265 274 281 285 287 292 310 300 293 319 319 313 311 325 339 351 4 20 10 348 348 342 312 295 323 339 347 337 335 349 357 9 41 53 9 347 338 324 320 305 289 323 39 146 357 339 323 316 326 353 73 64 46 19 333 325 341 10 19 20
324 325 324 323 323 321 318 315 312 309 307 304 300 291 286 291 286 257 237 224 223 256 264 250 239 244 256 267 267 271 280 279 275 298 285 287 335 332 321 324 337 334 347 2 3 2 350 345 334 317 328 333 331 347 345 327 341 2 9 27 27 12 5 344 335 330 316 328 25 43 68 335 334 334 345 5 31 83 43 349 52 10 334 341 13 19 18
326 325 324 324 324 322 320 317 315 314 312 309 305 297 291 295 295 268 246 239 234 265 281 271 256 254 258 260 258 257 259 254 239 238 268 276 322 345 338 322 323 338 2 355 348 346 335 328 321 323 332 313 308 347 349 324 336 357 358 10 33 26 27 358 310 316 341 12 25 36 157 263 335 357 14 358 5 83 48 14 54 29 347 354 15 14 15
326 325 325 326 325 324 322 319 317 315 313 311 304 294 291 292 297 294 261 241 233 244 270 280 284 282 276 272 266 256 249 247 242 236 244 272 259 235 242 283 295 262 212 316 336 323 312 317 323 315 311 317 330 350 349 340 355 358 356 8 27 4 7 141 234 280 308 306 352 355 350 187 215 40 33 349 349 26 46 42 55 43 10 15 20 7 7
326 326 328 329 327 326 322 318 317 313 309 309 301 288 287 289 293 303 277 243 237 256 268 273 285 289 281 276 270 254 245 246 245 237 228 224 267 268 237 239 267 218 194 198 190 240 278 270 286 301 319 347 347 348 350 358 13 353 349 354 335 331 347 7 303 305 304 277 34 9 358 357 37 60 57 27 354 350 19 37 50 43 25 31 34 11 359
328 329 331 330 328 326 321 316 312 307 302 300 292 283 283 287 289 288 264 242 242 286 278 275 280 277 276 285 285 252 230 231 236 235 228 218 220 280 264 205 222 237 255 238 209 193 266 272 276 310 330 353 360 359 348 347 352 344 341 338 327 337 2 18 357 337 329 11 46 16 351 349 30 37 40 30 2 351 359 6 35 54 35 36 55 33 2
330 330 331 331 327 323 318 312 306 300 295 288 279 273 269 274 285 268 233 233 239 237 297 309 262 270 294 304 292 256 223 222 227 228 225 219 214 220 241 253 256 263 272 262 228 178 322 298 287 315 327 3 14 357 328 321 329 331 333 338 337 346 15 26 359 337 322 333 24 6 341 325 50 40 25 16 2 356 354 346 351 37 36 19 66 69 29
332 332 332 331 326 321 317 312 305 296 287 272 253 243 240 249 274 241 216 229 274 210 288 294 276 299 323 323 292 254 222 216 218 218 220 220 218 221 233 253 270 280 292 293 294 305 299 297 305 289 295 9 8 329 300 306 307 303 304 339 347 354 15 10 342 323 309 326 5 2 347 328 333 349 354 1 353 345 345 340 334 348 14 7 15 45 49
333 333 332 330 329 328 327 325 321 317 306 261 211 204 210 219 237 230 213 200 132 50 292 263 279 308 320 317 302 275 216 201 207 222 234 230 218 219 231 262 322 345 6 357 327 331 12 355 327 302 308 345 337 296 283 298 296 285 292 356 7 14 16 1 347 334 318 327 352 358 343 313 308 315 320 334 339 330 329 334 328 326 340 358 356 355 358
333 333 333 335 341 352 357 353 360 19 58 117 141 157 178 198 237 252 234 212 190 170 258 255 275 303 310 309 311 298 193 181 188 217 279 343 62 88 55 42 40 19 18 23 359 1 11 338 312 316 344 336 319 312 306 307 312 311 327 9 28 26 9 356 344 313 293 298 317 333 309 284 287 295 301 310 318 314 312 318 314 306 314 336 349 340 334
339 340 342 349 3 26 43 37 38 57 96 114 116 124 145 143 308 266 227 211 211 213 293 288 287 303 307 309 324 2 138 157 178 182 140 48 52 59 59 59 55 28 22 53 43 20 352 319 310 333 344 313 301 314 330 340 338 319 329 355 3 352 342 339 323 298 290 292 300 302 285 276 277 282 288 293 296 295 298 299 291 281 293 313 331 325 317
343 348 356 8 37 79 97 82 66 65 89 120 121 117 77 14 191 190 188 196 206 207 261 344 301 304 303 316 4 36 55 64 66 71 73 68 58 56 62 70 56 31 48 91 69 72 241 309 327 342 341 332 326 322 333 339 322 298 333 349 343 334 332 328 314 298 292 291 293 288 273 268 273 277 276 277 277 275 275 278 282 290 292 289 290 300 306
342 352 21 58 102 127 123 100 79 60 20 289 249 199 3 325 198 178 172 188 198 197 110 329 263 301 310 352 39 29 28 49 67 73 70 65 60 59 63 69 52 22 37 94 91 117 148 318 315 310 329 342 351 343 330 334 324 318 337 340 333 328 329 323 312 303 294 290 291 285 273 265 260 263 263 259 251 246 247 254 276 300 303 298 294 293 296
337 356 131 126 136 145 143 124 50 31 18 357 16 111 103 311 188 165 155 163 181 186 33 17 292 318 321 43 28 17 27 47 56 54 42 32 35 54 53 53 52 9 7 31 69 41 353 313 299 290 300 327 344 341 331 335 323 322 327 326 319 322 325 316 308 303 295 292 294 290 284 274 235 227 249 259 247 244 254 264 280 295 301 303 299 288 280
324 189 166 160 161 163 168 173 123 70 68 67 68 82 99 113 136 145 139 141 171 216 354 78 10 306 293 194 7 358 10 31 25 28 28 7 357 35 36 18 18 4 0 15 57 348 311 281 277 284 271 279 332 340 251 322 327 322 320 317 315 320 319 311 306 304 297 293 289 277 277 277 259 240 254 270 270 267 269 270 271 276 282 288 288 283 278
301 205 187 182 184 191 200 204 197 233 322 339 66 98 109 126 142 147 142 132 91 344 2 85 91 311 324 47 9 338 356 31 16 13 25 356 352 28 29 338 353 14 2 3 29 333 326 310 310 324 302 277 338 60 358 329 329 326 321 318 314 311 311 310 311 312 308 303 292 276 271 272 269 260 255 255 258 260 256 252 254 252 248 248 249 263 283
317 221 207 203 199 205 223 242 249 257 280 259 217 161 117 129 150 159 177 204 91 54 321 231 96 354 351 11 330 314 354 52 6 352 47 351 345 17 80 13 10 9 330 335 4 357 343 335 344 349 334 330 4 34 341 324 326 329 331 328 316 309 317 320 319 319 316 307 296 290 284 271 260 259 255 244 239 244 243 239 238 237 237 235 220 214 244
324 262 222 215 213 223 244 256 246 231 231 222 195 156 114 118 141 153 218 227 143 128 208 352 53 161 187 6 274 273 3 70 335 350 51 15 341 15 75 66 32 333 303 348 1 336 333 342 354 349 344 1 18 352 313 326 334 338 340 337 326 322 331 330 326 324 316 304 300 308 307 281 254 255 261 252 232 227 231 233 229 226 231 231 216 199 202
314 289 230 207 213 238 256 244 217 205 209 191 156 135 116 118 136 155 263 247 169 179 157 108 268 233 188 159 250 242 117 131 206 23 35 168 189 14 47 79 103 216 316 348 316 269 350 17 28 1 346 356 313 269 297 340 348 342 341 341 335 335 337 333 331 331 323 315 322 336 336 315 277 256 255 257 246 225 221 227 226 222 226 227 218 203 196
331 286 200 160 175 302 269 205 183 172 164 146 131 126 127 117 113 254 268 226 206 244 141 115 257 245 166 124 234 221 153 159 179 142 62 205 133 345 345 72 152 190 311 317 261 142 80 36 59 51 327 301 269 265 300 346 348 339 342 344 340 338 338 334 337 341 340 337 337 337 334 329 314 282 257 253 249 234 224 226 225 221 226 226 220 207 197
360 294 165 135 154 292 316 148 149 149 147 142 133 136 183 95 71 318 272 158 94 277 184 169 241 232 124 78 266 232 175 150 152 203 237 235 150 176 211 231 189 137 38 319 226 119 69 346 43 80 356 329 315 300 308 332 341 342 348 349 345 344 340 335 339 345 345 341 334 328 329 334 330 310 277 252 244 239 232 226 221 221 226 225 217 205 196
311 276 229 156 166 188 142 142 148 152 152 156 179 226 204 119 144 246 277 12 347 269 195 206 240 202 100 84 266 279 343 4 251 193 192 220 226 170 122 15 214 98 36 314 230 129 85 325 319 34 358 338 323 311 311 329 342 346 351 351 349 348 343 339 343 347 346 345 344 341 341 343 339 331 314 278 247 236 235 232 226 225 223 216 209 205 202
292 271 206 103 68 125 144 152 163 191 245 205 184 220 352 235 253 251 77 28 327 278 224 226 297 262 200 194 197 239 337 333 288 151 144 256 262 123 111 228 235 86 36 271 224 122 83 57 27 352 332 320 313 309 315 331 339 348 358 356 352 351 348 347 350 353 354 354 353 350 349 349 348 343 334 316 274 229 226 235 233 229 223 218 216 211 200
287 270 256 256 223 147 152 164 195 233 245 150 287 313 316 161 335 348 32 121 282 275 248 223 199 213 234 224 193 193 222 230 156 66 56 281 269 130 139 201 59 77 251 252 208 79 38 6 13 326 311 312 312 311 318 332 336 345 356 357 355 355 353 350 352 356 359 359 356 353 355 356 355 351 345 339 329 271 235 237 229 226 229 225 214 199 186
304 272 247 234 208 168 165 207 237 188 99 39 29 4 346 342 350 326 286 246 202 205 231 223 112 6 284 268 238 191 168 160 141 70 94 232 250 109 109 68 53 123 226 250 70 63 9 356 10 322 311 318 320 318 320 323 322 333 347 356 2 1 357 357 360 1 2 3 3 2 4 3 1 0 360 358 358 2 354 331 297 241 229 220 206 190 177
333 262 149 154 183 171 171 278 276 109 19 343 30 47 358 335 337 342 318 291 254 249 240 204 158 182 248 231 166 121 133 140 111 56 251 229 235 117 101 172 238 197 128 38 46 60 27 28 7 321 313 320 325 324 324 323 320 329 340 350 1 4 3 6 8 7 7 8 7 8 10 9 7 8 8 7 8 11 11 13 27 41 51 53 45 59 125
336 347 42 30 336 320 81 339 326 23 23 345 347 44 359 335 335 327 301 251 230 272 282 244 176 190 228 240 117 147 216 128 88 75 229 213 229 25 150 219 242 80 67 40 2 329 357 356 330 314 313 316 322 326 325 321 320 327 335 346 359 8 11 13 13 12 11 9 8 10 14 13 11 12 12 13 14 17 20 29 42 51 61 64 54 46 63
292 282 75 69 307 288 85 42 348 8 30 343 331 14 6 339 309 296 293 295 301 302 300 287 205 184 199 217 176 206 189 132 130 253 242 144 84 338 202 146 40 36 41 2 323 313 295 284 287 297 304 308 318 327 326 320 321 334 343 350 358 5 12 19 20 17 16 15 14 15 17 17 17 17 15 17 21 23 25 33 45 52 59 67 69 64 65
292 299 77 85 312 310 24 39 348 350 113 105 14 15 5 341 323 320 315 311 309 310 309 306 276 159 164 177 178 293 277 154 168 302 338 62 77 342 61 63 46 31 247 305 305 285 270 274 280 290 303 313 323 328 326 324 328 342 352 354 358 4 12 22 25 21 20 21 22 21 20 19 20 22 21 20 24 25 26 32 42 49 52 57 64 67 67
244 18 87 122 220 297 336 342 348 7 26 32 23 16 13 14 355 328 312 307 316 327 329 334 359 18 351 330 82 39 352 23 47 350 339 29 48 26 24 28 358 305 117 331 281 271 274 290 292 293 305 320 330 332 328 326 330 340 348 353 2 8 13 20 26 25 24 25 26 27 25 22 23 26 27 25 26 28 29 32 39 44 48 52 55 57 59
205 74 87 144 164 253 251 148 63 19 342 353 19 23 25 21 342 307 305 328 337 327 318 328 18 24 339 325 42 42 1 6 38 14 3 31 41 16 342 323 316 330 348 324 293 295 302 300 301 307 316 328 338 340 332 328 334 341 343 346 11 25 21 19 25 29 30 30 30 33 33 30 27 28 28 28 28 30 32 35 38 40 42 47 52 53 53
54 86 133 107 55 318 301 38 47 358 323 342 11 13 14 7 323 303 315 342 340 334 342 358 18 26 5 1 27 30 1 7 54 55 40 35 29 352 342 356 337 306 301 297 288 282 275 271 291 321 331 339 347 343 331 328 339 347 345 349 14 40 36 27 29 34 36 36 38 39 39 37 34 32 29 29 32 37 39 40 41 40 39 42 47 50 49
349 8 259 203 169 182 178 118 109 265 281 353 359 321 354 1 304 298 320 359 15 18 13 354 343 24 30 19 13 13 7 32 55 61 51 30 22 16 358 325 274 259 266 271 262 253 261 275 319 359 351 343 340 335 328 336 354 360 355 354 8 28 33 29 33 40 43 45 46 45 44 44 44 44 42 40 40 43 45 44 44 44 44 43 45 47 47
2 354 322 309 10 122 125 132 167 202 191 188 227 231 119 240 275 293 350 38 53 40 4 339 18 59 54 25 329 352 20 45 52 47 42 30 33 165 193 220 239 247 261 278 286 295 308 314 326 354 344 332 330 335 341 349 2 7 4 359 6 16 16 13 22 37 46 52 56 55 55 54 53 54 54 50 46 44 45 45 45 49 51 51 50 50 50
Height
854 852 850 849 846 844 842 839 837 834 832 828 825 824 821 821 814 799 793 795 789 786 793 795 795 796 792 787 781 776 774 776 777 776 775 776 778 780 782 783 784 784 782 780 777 777 782 784 781 780 776 772 768 763 760 760 758 757 756 749 741 736 736 740 730 701 674 659 648 642 639 643 654 659 657 660 666 668 676 687 688 693 698 695 705 716 686
853 852 850 848 846 844 842 840 837 835 833 831 829 827 824 822 816 803 798 797 792 795 805 807 805 802 796 792 788 781 777 777 779 780 778 778 780 783 784 783 783 783 780 777 775 777 784 786 781 779 778 772 768 764 763 763 761 760 758 751 746 745 745 750 744 712 684 674 669 660 650 647 653 655 653 654 657 661 667 673 680 690 692 691 706 714 682
853 851 850 848 846 844 841 840 837 835 834 832 829 829 825 822 816 805 801 800 797 802 810 812 812 808 802 799 794 787 783 779 778 781 780 778 780 783 782 781 782 780 779 779 776 775 782 786 782 779 777 773 768 765 764 763 761 758 754 747 747 751 750 753 750 728 707 698 690 679 670 658 648 646 649 650 652 659 668 675 686 694 688 686 696 696 672
852 850 849 847 846 844 841 839 837 835 834 831 830 829 826 823 817 810 806 803 801 806 809 812 815 812 809 806 798 793 792 784 778 779 781 779 778 780 780 779 780 781 781 783 782 778 778 781 781 779 778 775 770 766 764 762 758 753 749 744 746 751 748 745 743 732 716 706 692 679 677 672 657 645 646 650 651 655 662 674 686 686 683 686 685 676 668
851 850 848 846 845 843 841 839 837 835 834 832 830 827 825 824 819 815 816 813 809 812 814 814 816 814 811 810 803 798 796 789 782 780 780 780 778 779 780 779 782 784 784 785 785 780 778 779 779 778 777 775 770 766 763 761 756 750 747 746 746 752 751 740 731 724 712 703 692 678 674 674 660 645 644 648 650 654 661 671 675 672 681 689 675 667 672
850 848 847 846 844 843 841 839 837 835 834 832 831 828 825 824 820 818 821 821 820 823 821 817 816 813 811 810 805 801 798 795 792 787 783 781 781 782 783 782 782 784 784 786 786 782 781 781 779 778 778 775 771 768 762 758 754 751 750 747 746 753 752 737 727 721 706 694 687 675 667 664 652 640 640 644 647 653 660 664 663 663 673 677 664 664 670
849 847 846 845 843 842 840 839 837 835 834 832 831 830 827 824 823 821 822 824 825 827 824 820 818 815 813 811 806 803 801 800 797 793 790 788 784 784 786 785 783 782 781 784 785 785 786 785 779 776 777 774 773 773 767 757 753 755 755 748 746 752 748 735 731 725 704 688 679 668 661 658 648 637 634 638 643 649 653 658 660 658 659 657 656 662 663
848 846 845 843 842 841 840 839 837 834 834 832 831 831 828 827 827 825 825 827 826 825 822 821 821 817 814 812 807 803 803 802 799 795 796 796 790 786 788 786 782 781 780 782 783 782 783 783 777 772 773 772 773 777 775 765 759 760 759 752 748 751 747 736 734 726 704 686 676 666 660 656 649 643 637 635 639 645 650 653 655 658 659 657 659 665 662
846 845 844 842 841 840 838 837 836 834 833 832 831 830 828 828 828 827 829 828 824 823 822 822 824 821 815 812 809 807 805 803 802 800 796 795 794 791 790 787 782 780 780 780 781 778 776 776 771 765 765 765 765 769 770 767 766 766 763 756 750 752 749 740 736 732 710 689 682 675 660 650 654 662 658 647 642 645 652 656 658 662 664 662 664 668 664
845 843 842 840 839 838 837 836 835 834 833 832 831 829 827 828 827 827 829 828 824 823 823 822 824 821 814 811 809 809 806 801 803 806 798 792 793 792 789 786 783 782 782 779 777 774 770 768 764 759 757 755 755 759 760 760 765 767 766 761 752 751 751 744 743 739 715 693 691 684 666 665 681 689 680 665 655 655 664 673 674 672 668 665 665 663 658
843 841 840 838 837 836 835 834 833 832 832 831 830 828 827 828 828 826 828 828 823 821 822 822 822 818 813 812 810 808 806 802 803 808 803 794 791 788 785 784 783 782 780 775 771 768 764 761 758 754 752 749 748 751 753 753 756 759 762 761 752 748 750 748 746 742 722 704 700 691 685 695 702 692 681 675 669 671 680 688 688 682 674 668 662 655 653
840 839 838 836 835 834 833 832 831 830 830 829 828 827 825 826 827 826 828 827 822 821 822 821 818 816 813 812 811 807 805 802 801 803 802 796 790 785 783 783 783 781 776 770 767 764 760 758 755 751 748 747 745 745 747 748 749 751 754 756 751 747 748 747 743 739 726 713 706 702 702 703 694 682 679 678 673 672 678 685 687 685 680 676 669 662 659
838 837 835 834 833 832 831 830 829 827 827 826 826 825 824 824 825 824 825 826 822 821 821 819 815 814 813 811 809 805 802 801 800 800 799 795 791 786 782 783 783 777 771 768 765 763 761 759 756 754 750 745 743 742 742 743 744 746 747 747 746 745 745 744 740 734 727 721 719 715 703 689 682 680 679 678 678 678 680 688 693 691 687 686 683 672 665
836 834 833 832 831 830 828 827 826 825 825 824 823 822 822 822 822 822 822 823 820 818 818 817 813 811 811 809 807 805 802 801 801 801 799 796 792 787 783 781 779 773 768 767 764 763 764 761 760 761 755 749 747 746 742 738 738 739 741 740 738 739 742 743 740 731 724 727 730 720 701 689 691 696 694 693 696 693 693 701 705 697 691 693 690 679 672
834 832 831 830 829 827 826 825 824 823 822 822 821 820 820 819 820 820 819 820 819 817 816 815 811 809 810 808 806 806 805 803 803 803 801 796 790 787 784 779 775 770 767 766 765 765 764 764 768 771 764 757 758 755 745 738 732 730 733 734 733 734 738 743 744 734 726 730 731 721 711 709 712 712 704 697 696 693 690 698 706 701 695 695 694 686 680
832 830 829 828 826 825 824 823 822 821 820 820 819 818 817 817 817 817 816 817 819 816 811 809 808 808 810 808 806 807 806 804 805 805 801 796 791 787 783 778 774 770 767 768 770 771 770 770 774 775 770 764 764 760 751 745 737 729 726 729 731 732 734 739 744 740 733 733 732 730 730 729 724 717 703 690 689 687 684 695 711 710 701 697 696 692 686
830 828 827 825 824 823 821 820 819 818 818 817 817 816 815 814 815 815 814 815 816 812 806 805 807 809 810 809 806 805 804 803 804 805 804 800 794 789 783 778 774 770 769 772 775 777 778 778 776 775 772 766 762 759 755 752 749 740 731 730 734 735 735 738 743 741 735 731 730 735 741 737 724 716 705 691 681 677 685 709 725 718 706 701 699 695 692
827 826 825 823 822 820 819 818 817 816 815 815 814 814 812 812 813 813 812 813 814 810 804 803 805 807 807 807 805 803 802 801 803 805 804 801 796 792 787 782 779 774 772 775 779 781 782 780 779 778 774 764 759 761 760 757 755 748 738 734 738 741 740 741 742 738 734 729 727 734 743 738 726 718 707 688 677 684 708 730 732 721 713 707 700 697 696
825 824 822 821 819 818 817 816 814 813 813 813 812 811 810 810 810 811 810 811 811 808 803 801 803 803 802 802 802 801 800 801 802 804 805 801 796 792 788 785 783 781 778 779 782 783 782 781 780 779 777 769 762 763 764 758 753 749 743 741 746 751 749 746 744 740 734 728 726 733 741 737 728 719 703 685 689 714 732 732 725 723 721 712 703 701 699
823 821 820 818 817 816 814 813 812 811 811 811 810 809 808 808 808 808 809 809 809 807 802 800 801 800 799 800 801 800 800 800 800 802 804 801 796 792 792 791 788 786 786 786 786 785 785 785 782 779 779 775 765 761 764 760 751 747 747 748 749 752 755 757 753 745 739 734 735 743 748 741 730 722 710 702 713 731 733 726 724 727 723 715 709 705 702
821 819 818 816 815 814 812 811 810 810 809 808 808 807 806 806 806 807 806 807 808 806 802 799 798 798 798 798 798 798 799 798 799 800 801 799 797 797 799 797 793 791 792 793 791 789 787 786 783 779 778 774 766 764 767 765 755 747 744 746 747 748 756 764 759 748 746 749 748 747 746 741 734 730 728 726 726 726 725 725 728 729 725 719 714 710 707
819 817 815 814 813 811 810 809 808 808 807 807 806 806 805 805 805 806 806 805 806 805 801 798 797 797 796 795 794 794 794 794 794 796 797 797 797 796 797 795 793 793 794 794 793 791 789 786 783 780 777 773 768 767 766 765 762 754 747 749 753 751 751 756 755 747 746 749 745 738 735 736 735 734 734 731 725 721 722 724 726 729 727 722 718 716 713
817 815 813 812 811 810 808 807 807 806 805 805 805 804 804 804 804 805 805 804 804 803 799 797 796 794 791 790 789 789 790 791 792 792 794 796 796 794 794 794 793 792 792 792 791 790 789 788 784 779 776 773 770 770 768 765 765 762 755 752 753 749 745 747 749 746 742 741 739 737 737 736 734 734 736 734 728 723 721 721 724 727 727 723 721 721 718
814 813 811 810 809 808 807 805 805 804 803 803 803 803 803 803 803 804 804 804 804 803 799 797 796 793 789 786 786 786 787 788 789 789 790 793 795 794 792 791 791 790 788 786 785 785 786 785 781 779 779 774 772 775 777 773 768 765 762 757 753 748 746 749 752 751 748 746 744 744 743 740 735 735 737 737 733 728 724 723 723 725 725 725 724 723 721
812 810 809 808 807 805 805 803 803 802 802 802 802 802 802 802 802 803 803 804 804 804 803 800 794 789 786 785 785 785 785 784 785 787 788 789 790 791 789 787 786 786 784 782 781 782 784 783 782 783 782 777 775 778 779 776 771 766 765 765 760 752 750 755 760 757 752 748 747 746 744 739 735 736 738 739 738 735 729 726 724 723 724 725 723 723 725
810 809 807 806 805 803 802 801 801 800 800 800 800 800 801 801 802 802 803 803 803 804 805 802 793 786 785 785 783 782 783 783 783 784 785 785 785 786 785 784 784 784 782 781 780 780 782 782 782 784 783 779 779 780 777 774 772 768 766 766 762 757 758 763 765 762 755 749 748 749 746 738 733 734 737 738 739 737 734 731 727 723 723 724 723 723 724
808 807 805 804 803 802 801 800 799 799 798 798 799 799 800 801 802 802 802 802 803 804 805 802 794 787 785 784 781 780 780 781 782 782 782 783 783 784 784 784 785 784 783 783 782 781 782 783 783 782 781 780 779 779 776 773 770 768 767 766 763 764 769 770 769 768 763 756 755 757 757 751 742 737 736 737 739 738 736 734 732 726 723 723 723 723 722
806 805 804 802 801 801 801 800 799 798 798 798 799 799 800 800 801 801 801 801 802 803 804 802 796 790 786 782 780 780 780 781 781 781 781 781 781 783 784 784 785 786 786 786 786 785 786 787 785 781 781 782 782 779 775 773 772 771 769 768 768 772 775 775 775 774 768 760 759 761 762 757 749 741 738 738 739 738 736 734 734 730 725 723 723 723 721
805 803 802 801 801 801 801 800 800 799 799 799 799 800 800 800 800 800 800 801 801 802 802 801 795 790 787 783 781 780 780 781 781 780 781 782 782 783 784 785 786 787 787 787 789 790 790 789 786 784 784 784 784 782 779 778 779 776 771 769 770 772 773 773 775 772 764 758 759 760 759 755 748 743 741 738 737 737 735 732 730 730 727 724 723 722 720
803 802 802 801 801 801 800 801 801 800 800 800 800 800 801 801 800 800 799 800 801 801 802 802 797 790 786 783 782 782 781 781 781 781 782 783 784 784 785 785 786 787 787 788 790 791 792 791 788 787 785 783 783 785 783 781 780 774 768 768 769 768 767 768 769 768 763 757 755 756 754 749 744 741 740 737 735 735 733 729 726 726 724 723 722 721 720
802 802 801 801 801 801 801 801 801 800 800 800 800 800 801 800 799 799 799 800 801 800 801 802 799 792 787 784 783 784 784 782 782 783 784 785 785 785 785 786 787 787 788 790 790 790 793 793 791 790 787 784 784 786 784 783 781 774 768 769 769 767 766 765 762 760 757 752 749 747 744 740 740 739 734 731 731 731 729 726 724 723 722 721 721 720 720
801 801 801 801 801 801 801 801 801 800 800 800 799 799 799 799 799 798 798 800 800 801 802 803 799 793 789 787 785 785 785 784 784 785 786 786 786 786 786 787 788 788 787 789 791 793 793 793 792 791 788 785 785 786 786 787 787 780 774 772 770 768 767 764 759 755 751 746 745 741 734 730 732 732 727 724 725 726 726 725 724 722 721 719 718 718 718
801 800 800 801 801 801 801 801 801 801 801 800 800 799 798 798 799 799 799 800 800 800 801 803 800 795 790 788 788 786 786 786 786 787 788 788 787 788 789 789 788 788 788 789 793 794 792 791 792 791 788 787 788 790 790 790 790 785 780 776 772 769 766 761 756 751 746 742 741 738 729 723 724 725 723 721 722 722 724 724 723 722 721 718 717 716 715
800 800 800 800 800 800 801 801 801 801 801 800 800 799 799 799 799 799 799 799 799 800 801 801 801 797 792 789 790 788 787 788 789 789 791 790 788 789 791 791 790 790 791 792 793 793 791 791 791 790 789 787 788 790 792 791 790 787 782 777 774 771 767 760 754 748 742 736 733 729 721 718 718 718 716 717 717 718 720 720 720 720 719 717 715 714 713
799 799 799 800 800 800 800 800 800 800 800 800 799 799 799 799 799 800 800 799 799 800 801 800 800 799 796 794 794 790 787 789 791 790 791 792 790 790 792 793 793 795 794 793 793 794 793 791 791 791 790 788 788 792 795 792 788 784 779 775 773 771 767 761 754 747 740 732 726 719 713 712 712 709 707 710 713 714 714 714 715 716 715 714 713 713 713
799 798 798 799 799 799 799 799 799 799 799 798 798 798 799 800 800 800 800 799 799 800 800 799 799 798 797 797 796 791 788 790 792 791 791 792 792 792 793 794 796 798 797 795 796 797 795 793 793 795 795 793 795 797 795 791 786 781 776 773 770 768 766 762 756 749 740 731 723 715 709 707 706 703 701 704 707 708 708 709 709 710 711 711 710 711 711
798 798 798 798 799 799 798 798 798 798 797 796 797 799 800 800 800 800 800 799 798 798 799 800 798 794 793 796 795 790 788 791 792 792 792 794 794 793 794 795 797 797 797 797 797 797 796 796 798 800 799 797 797 796 792 788 786 783 778 774 769 765 762 759 754 747 738 728 720 715 710 705 702 700 698 699 701 703 704 704 703 704 705 706 706 707 708
797 797 797 798 798 798 798 797 797 797 797 797 798 799 800 800 801 801 800 800 799 798 799 800 796 791 791 793 791 788 788 790 791 791 792 793 793 794 794 795 795 796 797 798 796 795 796 798 801 803 801 797 795 794 791 788 787 783 780 777 772 767 763 759 753 747 740 732 725 721 716 710 704 699 695 694 695 697 698 698 699 699 700 700 701 702 703
798 797 797 797 798 798 797 797 797 798 798 798 798 799 800 801 801 799 798 798 798 797 798 798 794 790 790 791 789 786 786 787 789 790 789 790 791 793 794 794 793 794 797 797 795 795 797 799 800 802 802 798 795 792 790 788 786 783 780 778 774 770 767 762 756 751 747 741 734 727 720 713 707 699 692 689 689 690 692 693 694 696 696 696 697 698 698
797 797 796 797 797 797 797 798 798 799 799 799 799 799 799 800 799 796 795 795 795 794 794 793 791 789 790 791 790 788 786 786 788 788 788 789 789 790 791 793 792 793 796 797 794 794 797 799 800 802 802 800 796 791 788 787 786 783 780 777 775 772 768 764 759 754 748 741 734 726 719 712 706 699 691 686 685 686 687 688 689 691 692 693 694 694 694
797 796 796 796 797 797 798 798 799 799 799 799 798 797 797 797 795 793 794 796 795 792 790 789 790 790 789 788 789 790 789 788 787 786 788 788 788 788 791 792 792 793 796 795 791 791 795 799 802 803 802 799 795 791 788 787 785 782 779 777 775 771 767 763 759 754 748 742 735 728 721 713 706 699 692 686 682 682 684 684 685 686 687 689 690 691 692
796 795 795 796 797 798 798 799 800 799 797 795 795 794 793 793 793 793 794 795 794 791 788 787 787 788 787 786 787 788 787 786 786 787 788 788 786 787 789 791 791 793 794 790 787 791 796 801 804 805 801 797 793 790 787 786 784 782 780 778 775 772 768 764 760 755 750 745 739 732 724 717 710 703 696 688 683 681 681 682 682 682 683 684 686 688 690
794 793 794 795 796 796 797 797 796 795 794 792 794 795 795 793 793 794 793 791 791 790 787 785 785 786 786 785 785 785 785 785 786 788 789 788 786 785 787 789 790 790 788 786 789 795 801 804 806 805 800 795 792 789 786 785 783 781 779 777 775 773 770 766 762 757 752 747 742 735 728 721 714 707 700 692 687 683 682 681 681 681 681 682 683 685 687
792 791 793 794 793 794 796 794 791 792 795 794 794 797 799 797 795 794 792 790 789 787 784 782 784 785 784 782 783 784 785 784 785 788 788 786 784 783 785 787 787 785 785 789 793 797 800 804 805 803 799 795 792 789 786 784 783 781 779 776 774 772 770 766 762 758 753 748 743 737 731 725 718 711 705 699 693 689 686 684 683 682 683 683 685 686 687
792 791 793 794 793 793 795 795 791 791 795 795 794 796 798 797 795 794 790 786 784 782 779 779 781 782 781 780 781 782 783 784 787 788 784 780 781 783 784 784 783 784 789 795 798 798 801 804 804 800 797 795 792 789 786 783 782 780 779 776 774 771 770 767 763 760 756 752 747 742 736 731 725 719 713 708 702 697 693 690 687 687 687 687 689 691 692
792 791 792 797 796 792 793 797 797 795 795 795 794 795 794 793 792 790 786 782 782 781 778 776 776 778 779 780 780 779 780 782 785 783 776 775 781 784 782 782 786 791 796 800 801 802 804 805 802 799 796 794 791 789 786 783 781 780 779 777 774 772 770 768 765 763 760 756 751 747 742 737 733 728 723 717 711 706 703 699 695 694 694 694 696 698 699
794 791 792 798 799 794 793 796 798 796 794 793 793 792 791 790 789 787 784 782 781 779 776 773 773 774 775 776 777 778 777 778 779 778 775 776 780 781 780 786 795 801 803 804 805 805 805 802 799 797 795 793 790 789 786 783 781 779 778 777 775 773 771 769 767 765 762 759 755 751 747 744 741 736 731 726 721 717 713 709 705 704 704 704 703 704 705
793 792 794 798 799 796 795 796 795 793 793 792 791 790 790 790 789 788 785 782 780 779 777 775 773 774 774 774 775 777 777 777 780 781 779 779 783 786 789 794 800 803 805 806 806 804 802 800 798 796 794 792 790 788 786 783 781 779 778 777 776 774 772 770 768 766 764 761 758 755 753 750 747 743 739 736 732 727 724 721 717 715 714 713 712 712 713
791 792 794 795 794 793 793 793 793 794 794 792 791 791 791 791 791 788 785 782 781 780 777 774 774 776 778 776 776 778 779 781 783 785 785 788 793 796 798 800 803 805 805 805 804 802 801 799 796 795 793 791 790 788 786 784 782 779 778 777 776 774 772 771 769 768 766 763 761 759 757 755 752 749 746 743 740 738 735 731 727 725 724 723 721 722 723
791 792 793 794 794 793 792 792 794 796 795 793 792 792 792 792 790 787 785 783 782 780 778 777 777 779 780 780 781 784 784 784 786 791 796 799 801 801 802 806 810 810 807 804 802 801 799 796 795 795 793 790 789 788 787 784 782 780 778 776 775 774 773 772 771 769 768 766 764 762 760 758 757 754 752 750 748 746 743 740 737 736 735 733 731 730 731
793 792 792 791 792 793 792 793 796 797 796 794 792 791 790 790 789 787 784 783 783 783 784 784 783 783 785 788 790 790 787 786 790 798 802 802 802 804 807 810 809 807 804 801 799 798 797 795 794 794 792 790 789 789 787 785 783 780 778 777 776 775 774 773 772 770 769 768 767 765 763 761 760 759 757 756 754 751 748 747 746 745 744 742 740 739 739
795 794 791 790 790 790 790 791 792 793 793 791 789 788 788 788 787 785 784 784 785 786 787 786 786 788 792 793 792 790 789 791 796 802 804 802 801 803 806 805 803 801 800 799 797 797 796 795 794 793 792 791 790 789 787 786 784 781 780 778 777 776 775 774 773 772 771 769 768 767 766 765 764 762 761 759 757 755 754 754 754 752 751 750 748 747 746